Weather History for Plattsburgh, NY

Change the Weather History Date:

Saturday, September 28, 2013

  Actual Average Record
Temperature  
Mean Temperature 56 °F 54 °F  
Max Temperature 70 °F 65 °F 82 °F (1959)
Min Temperature 41 °F 44 °F 29 °F (1956)
Degree Days  
Heating Degree Days 9 11  
Month to date heating degree days 218 171  
Since 1 July heating degree days 263 212  
Cooling Degree Days 0 0  
Month to date cooling degree days 40 19  
Year to date cooling degree days 423 341  
Growing Degree Days 6 (Base 50)    
Moisture  
Dew Point 49 °F    
Average Humidity 74    
Maximum Humidity 100    
Minimum Humidity 47    
Precipitation  
Precipitation 0.00 in - 0.62 in (1977)
Month to date precipitation 2.91  
Year to date precipitation 26.83  
Sea Level Pressure  
Sea Level Pressure 30.30 in    
Wind  
Wind Speed 1 mph (ESE)    
Max Wind Speed 6 mph    
Max Gust Speed 8 mph    
Visibility 9 miles    
Events      
T = Trace of Precipitation, MM = Missing Value Source: NWS Daily Summary

Daily Weather History Graph

Daily Weather History Graph

Search for Another Location

Airport:

Trip Planner

Search our weather history database for the weather conditions in past years. The results will help you decide how hot, cold, wet, or windy it might be!

Date:

Astronomy

Sep. 28, 2013 Rise Set
Actual Time 6:48 AM EDT 6:39 PM EDT
Civil Twilight 6:19 AM EDT 7:08 PM EDT
Nautical Twilight 5:45 AM EDT 7:42 PM EDT
Astronomical Twilight 5:10 AM EDT 8:16 PM EDT
Moon 12:20 AM EDT 3:08 PM EDT
Length of Visible Light 12h 49m
Length of Day
11h 51m
Last Quarter, 36% of the Moon is Illuminated
Sep 28
Last Quarter
Oct 4
New
Oct 11
First Quarter
Oct 18
Full
Oct 26
Last Quarter

Hourly Weather History & Observations

Time (EDT) Temp. Dew Point Humidity Pressure Visibility Wind Dir Wind Speed Gust Speed Precip Events Conditions
12:53 AM 46.0 °F 44.1 °F 93% 30.30 in 10.0 mi Calm Calm - N/A   Clear
1:53 AM 45.0 °F 45.0 °F 100% 30.31 in 8.0 mi Calm Calm - N/A   Clear
2:40 AM 44.6 °F 42.8 °F 93% 30.31 in 2.5 mi Calm Calm - N/A   Clear
2:53 AM 44.1 °F 43.0 °F 96% 30.31 in 10.0 mi Calm Calm - N/A   Clear
3:53 AM 44.1 °F 43.0 °F 96% 30.32 in 4.0 mi Calm Calm - N/A   Clear
4:53 AM 42.1 °F 42.1 °F 100% 30.33 in 10.0 mi Calm Calm - N/A   Clear
5:53 AM 42.1 °F 41.0 °F 96% 30.34 in 10.0 mi Calm Calm - N/A   Clear
6:53 AM 42.1 °F 41.0 °F 96% 30.36 in 8.0 mi Calm Calm - N/A   Clear
7:53 AM 46.9 °F 45.0 °F 93% 30.36 in 10.0 mi Calm Calm - N/A   Clear
8:53 AM 54.0 °F 50.0 °F 86% 30.37 in 10.0 mi Calm Calm - N/A   Clear
9:53 AM 57.0 °F 51.1 °F 81% 30.37 in 10.0 mi Calm Calm - N/A   Clear
10:53 AM 60.1 °F 53.1 °F 78% 30.36 in 10.0 mi SE 3.5 mph - N/A   Clear
11:53 AM 63.0 °F 54.0 °F 72% 30.35 in 10.0 mi SE 3.5 mph - N/A   Clear
12:53 PM 66.0 °F 55.9 °F 70% 30.34 in 10.0 mi ESE 4.6 mph - N/A   Clear
1:53 PM 69.1 °F 54.0 °F 58% 30.31 in 10.0 mi ESE 4.6 mph - N/A   Clear
2:53 PM 68.0 °F 54.0 °F 61% 30.30 in 10.0 mi ESE 4.6 mph - N/A   Clear
3:53 PM 70.0 °F 51.1 °F 51% 30.28 in 10.0 mi ESE 4.6 mph - N/A   Clear
4:53 PM 69.1 °F 48.9 °F 49% 30.26 in 10.0 mi ESE 4.6 mph - N/A   Clear
5:53 PM 64.9 °F 54.0 °F 68% 30.26 in 10.0 mi Calm Calm - N/A   Clear
6:53 PM 57.0 °F 55.0 °F 93% 30.25 in 10.0 mi Calm Calm - N/A   Clear
7:53 PM 55.9 °F 54.0 °F 93% 30.25 in 10.0 mi Calm Calm - N/A   Clear
8:53 PM 53.1 °F 52.0 °F 96% 30.24 in 10.0 mi Calm Calm - N/A   Clear
9:53 PM 50.0 °F 48.9 °F 96% 30.24 in 10.0 mi Calm Calm - N/A   Clear
10:53 PM 50.0 °F 48.9 °F 96% 30.24 in 10.0 mi Calm Calm - N/A   Clear
11:53 PM 48.0 °F 46.9 °F 96% 30.23 in 10.0 mi Calm Calm - N/A   Clear